[[{"header":{"parameterUnit":"m.s-1","parameterCategory":1,"la1":30.2991,"la2":30.254,"lo1":-89.0895,"lo2":-89.0444,"dy":0.0017,"dx":0.0017,"nx":28,"ny":28,"refTime":"2023-11-02T03:00:00:Z","depth":0,"parameterNumber":2,"parameterNumberName":"U-component_of_WINDS"},"data":[0,0,0,0,0,0,0,0,0,0,0,0,0,0,0,0,0,0,0,0,0,0,0,0,0,0,0,0,0,0,0,0,0,0,0,0,0,0,0,0,0,0,0,0,0,0,0,0,0,0,0,0,0,0,0,0,0,0,-0.5873,-0.5873,0,-0.5894,-0.5894,-0.5894,-0.5885,-0.5884,-0.5884,-0.5883,-0.5905,-0.5906,-0.5907,0,0,0,0,0,0,0,0,0,0,0,0,0,-0.5823,-0.5824,-0.5873,-0.5873,-0.5873,-0.5894,-0.5894,-0.5895,-0.5885,-0.5884,-0.5884,-0.5883,-0.5905,-0.5906,-0.5908,0,0,0,0,0,0,0,0,0,0,0,0,0,-0.5844,-0.5824,-0.5873,-0.5871,-0.5871,-0.5894,-0.5894,-0.5895,-0.5885,-0.5884,-0.5883,-0.5883,-0.5905,-0.5906,-0.5908,-0.5934,0,0,-0.5913,-0.5913,0,0,0,0,0,0,0,0,-0.5843,-0.5846,-0.5871,-0.5871,-0.5871,-0.5886,-0.5885,-0.5908,-0.5885,-0.588,-0.5883,-0.5882,-0.59,-0.5902,-0.5907,-0.5935,-0.5936,-0.5913,-0.5914,-0.5915,-0.5915,0,0,0,0,0,0,0,-0.5842,-0.5845,-0.5881,-0.5871,-0.5871,-0.5869,-0.5871,-0.5889,-0.5894,-0.588,-0.5879,-0.5882,-0.5899,-0.5906,-0.5908,-0.5936,-0.5913,-0.5914,-0.5915,-0.5916,-0.5985,-0.5986,0,0,0,0,0,0,-0.584,-0.5844,-0.588,-0.5882,-0.5855,-0.587,-0.5873,-0.5882,-0.5894,-0.5895,-0.5883,-0.5882,-0.5903,-0.5906,-0.5909,-0.594,-0.5915,-0.5916,-0.5917,-0.5985,-0.5986,-0.5987,0,0,0,0,0,0,-0.5839,-0.5844,-0.588,-0.5863,-0.5867,-0.5872,-0.5882,-0.5883,-0.5889,-0.5896,-0.5896,-0.5888,-0.5903,-0.5906,-0.5927,-0.594,-0.5917,-0.5918,-0.5983,-0.5985,-0.5986,-0.6002,0,0,0,0,0,0,-0.5838,-0.5843,-0.5853,-0.5863,-0.5868,-0.5898,-0.5883,-0.5884,-0.5892,-0.5891,-0.5901,-0.5902,-0.5902,-0.5925,-0.5929,-0.5942,-0.592,-0.5982,-0.5984,-0.5986,-0.6,-0.6004,-0.6007,0,0,0,0,0,-0.5836,-0.5857,-0.5854,-0.5858,-0.5881,-0.5899,-0.5902,-0.5902,-0.5893,-0.5903,-0.5907,-0.5902,-0.5938,-0.5927,-0.5932,-0.5945,-0.5982,-0.5984,-0.5986,-0.5999,-0.6003,-0.6007,0,0,0,0,0,0,-0.585,-0.5859,-0.5855,-0.588,-0.5889,-0.5897,-0.591,-0.5906,-0.5918,-0.5916,-0.5916,-0.5918,-0.594,-0.5945,-0.5933,-0.5971,-0.5958,-0.5961,-0.5967,-0.5971,-0.5974,-0.5973,-0.5921,0,0,0,0,0,-0.5855,-0.5869,-0.5877,-0.5898,-0.5902,-0.5906,-0.5914,-0.5913,-0.5922,-0.5926,-0.5931,-0.594,-0.5954,-0.5962,-0.5975,-0.6001,-0.6003,-0.6012,-0.6015,-0.6018,-0.602,-0.6034,-0.6038,-0.5993,-0.5993,-0.5993,0,0,-0.5868,-0.5874,-0.5883,-0.5901,-0.5908,-0.5922,-0.5909,-0.5925,-0.5936,-0.5928,-0.5948,-0.5953,-0.5963,-0.5986,-0.5997,-0.5991,-0.6033,-0.602,-0.6022,-0.6024,-0.6036,-0.6041,-0.6044,-0.5994,-0.5994,-0.5994,0,0,-0.5898,-0.5904,-0.5922,-0.5929,-0.5939,-0.5941,-0.5945,-0.5954,-0.5957,-0.5977,-0.5972,-0.5984,-0.6007,-0.6014,-0.6021,-0.6052,-0.6048,-0.6056,-0.6073,-0.6086,-0.6089,-0.6093,-0.6104,-0.6108,-0.6059,-0.6059,-0.6059,0,-0.5912,-0.5934,-0.5932,-0.5949,-0.5956,-0.595,-0.5968,-0.5974,-0.5988,-0.5994,-0.5986,-0.6015,-0.6021,-0.6046,-0.6053,-0.6059,-0.6064,-0.6056,-0.6089,-0.6092,-0.6095,-0.6106,-0.611,-0.606,-0.606,-0.606,-0.606,0,-0.595,-0.5965,-0.5979,-0.5992,-0.6001,-0.6018,-0.602,-0.6029,-0.6027,-0.6029,-0.6049,-0.6056,-0.607,-0.6076,-0.6074,-0.61,-0.6096,-0.6089,-0.6077,-0.61,-0.611,-0.6114,-0.6062,-0.6061,-0.6061,-0.6061,0,0,-0.5991,-0.6002,-0.6007,-0.6013,-0.6023,-0.6034,-0.6051,-0.6064,-0.6072,-0.6081,-0.6095,-0.6114,-0.6107,-0.6115,-0.6114,-0.6125,-0.6149,-0.6117,-0.6117,-0.6123,-0.6178,-0.6184,-0.6188,-0.6146,-0.6147,-0.6147,-0.6177,0,-0.6022,-0.6051,-0.605,-0.6077,-0.609,-0.6083,-0.6098,-0.6105,-0.6108,-0.6119,-0.6122,-0.6135,-0.6125,-0.613,-0.6141,-0.6144,-0.616,-0.6142,-0.6159,-0.6159,-0.6157,-0.6194,-0.62,-0.6228,-0.6181,-0.6182,-0.6182,0,-0.6062,-0.6072,-0.6101,-0.6108,-0.6114,-0.6127,-0.6138,-0.6149,-0.6158,-0.6158,-0.6166,-0.6163,-0.6179,-0.6166,-0.6188,-0.6175,-0.6182,-0.6184,-0.6186,-0.6188,-0.6173,-0.6197,-0.6237,-0.6241,-0.6188,-0.6188,-0.6187,0,-0.6088,-0.6109,-0.6129,-0.6134,-0.6143,-0.6152,-0.6156,-0.6164,-0.6171,-0.6181,-0.6186,-0.6198,-0.6204,-0.6213,-0.6213,-0.6203,-0.6236,-0.6222,-0.6237,-0.6237,-0.6245,-0.6244,-0.6286,-0.6248,-0.6248,-0.6248,-0.6248,0,-0.6123,-0.6141,-0.6141,-0.6153,-0.6173,-0.6171,-0.619,-0.6193,-0.6199,-0.6212,-0.6206,-0.6218,-0.6217,-0.6228,-0.6228,-0.6246,-0.6249,-0.625,-0.625,-0.6251,-0.6251,-0.6256,-0.6254,-0.6249,-0.6249,-0.6249,-0.6248,0,-0.6157,-0.6158,-0.6179,-0.6185,-0.6187,-0.6201,-0.6206,-0.6218,-0.6219,-0.6235,-0.6238,-0.624,-0.6254,-0.6254,-0.6269,-0.6269,-0.6291,-0.6289,-0.6289,-0.6289,-0.6303,-0.6302,-0.635,-0.6357,-0.6314,-0.6314,-0.6315,0,-0.618,-0.6193,-0.6201,-0.6208,-0.6213,-0.6226,-0.6233,-0.6231,-0.624,-0.6249,-0.6259,-0.6272,-0.6282,-0.6303,-0.6306,-0.6318,-0.6316,-0.6332,-0.6317,-0.6318,-0.6316,-0.6315,-0.6317,-0.6335,-0.6335,-0.6336,-0.6336,0,-0.6219,-0.6219,-0.623,-0.6241,-0.625,-0.6259,-0.6267,-0.6274,-0.6273,-0.6282,-0.6295,-0.6303,-0.6318,-0.6331,-0.6342,-0.6346,-0.6341,-0.634,-0.6344,-0.6346,-0.6345,-0.6346,-0.6297,-0.6339,-0.6339,-0.6339,-0.6339,-0.6339,-0.6248,-0.626,-0.6267,-0.6279,-0.6285,-0.6292,-0.6303,-0.6305,-0.6316,-0.6328,-0.6326,-0.6341,-0.6348,-0.6362,-0.6367,-0.6378,-0.6373,-0.6379,-0.638,-0.6382,-0.6383,-0.6343,-0.638,-0.638,-0.638,-0.638,-0.638,0,-0.6288,-0.6292,-0.6303,-0.6314,-0.6324,-0.6318,-0.6326,-0.6335,-0.6348,-0.6354,-0.6364,-0.6379,-0.6391,-0.6394,-0.6406,-0.6414,-0.6412,-0.6417,-0.6417,-0.6418,-0.6388,-0.6383,-0.6418,-0.6418,-0.6418,-0.6418,-0.6418,-0.6418,-0.631,-0.6329,-0.6329,-0.635,-0.6353,-0.6368,-0.6373,-0.638,-0.6385,-0.6402,-0.6412,-0.6413,-0.6419,-0.643,-0.6441,-0.6441,-0.6446,-0.6452,-0.6451,-0.6424,-0.642,-0.6416,-0.6412,-0.6453,-0.6453,-0.648,-0.6481,-0.6481]},{"header":{"parameterUnit":"m.s-1","parameterCategory":1,"la1":30.2991,"la2":30.254,"lo1":-89.0895,"lo2":-89.0444,"dy":0.0017,"dx":0.0017,"nx":28,"ny":28,"refTime":"2023-11-02T03:00:00:Z","depth":0,"parameterNumber":3,"parameterNumberName":"V-component_of_WINDS"},"data":[0,0,0,0,0,0,0,0,0,0,0,0,0,0,0,0,0,0,0,0,0,0,0,0,0,0,0,0,0,0,0,0,0,0,0,0,0,0,0,0,0,0,0,0,0,0,0,0,0,0,0,0,0,0,0,0,0,0,-7.2478,-7.2479,0,-7.2573,-7.2574,-7.2575,-7.2536,-7.2534,-7.2531,-7.2529,-7.2621,-7.2625,-7.2629,0,0,0,0,0,0,0,0,0,0,0,0,0,-7.2256,-7.2261,-7.2477,-7.2479,-7.248,-7.2573,-7.2574,-7.2575,-7.2536,-7.2534,-7.2531,-7.2528,-7.2619,-7.2624,-7.263,0,0,0,0,0,0,0,0,0,0,0,0,0,-7.2352,-7.2262,-7.2477,-7.2472,-7.2472,-7.2573,-7.2574,-7.2576,-7.2537,-7.2534,-7.253,-7.2527,-7.2617,-7.2624,-7.2631,-7.274,0,0,-7.2651,-7.2654,0,0,0,0,0,0,0,0,-7.2347,-7.236,-7.2471,-7.2472,-7.2473,-7.2539,-7.2529,-7.263,-7.2538,-7.2512,-7.2529,-7.2525,-7.2596,-7.2604,-7.2629,-7.2744,-7.2748,-7.2652,-7.2656,-7.2659,-7.2661,0,0,0,0,0,0,0,-7.234,-7.2356,-7.2515,-7.2473,-7.2474,-7.2463,-7.2473,-7.2548,-7.2571,-7.2514,-7.2512,-7.2524,-7.2595,-7.2623,-7.2631,-7.2749,-7.2652,-7.2658,-7.2662,-7.2665,-7.2959,-7.2963,0,0,0,0,0,0,-7.2334,-7.235,-7.2512,-7.2518,-7.24,-7.247,-7.2481,-7.2521,-7.2571,-7.2575,-7.2527,-7.2522,-7.2613,-7.2623,-7.2634,-7.2766,-7.2659,-7.2665,-7.2669,-7.2955,-7.296,-7.2964,0,0,0,0,0,0,-7.2329,-7.2349,-7.2508,-7.2434,-7.2453,-7.2477,-7.2523,-7.2525,-7.2552,-7.258,-7.2583,-7.2551,-7.2611,-7.2625,-7.2714,-7.2768,-7.2668,-7.2674,-7.2951,-7.2957,-7.2962,-7.303,0,0,0,0,0,0,-7.2323,-7.2347,-7.239,-7.2435,-7.2457,-7.2589,-7.2526,-7.2529,-7.2565,-7.2559,-7.2603,-7.2607,-7.2609,-7.2705,-7.2721,-7.2776,-7.268,-7.2946,-7.2954,-7.296,-7.3023,-7.3037,-7.305,0,0,0,0,0,-7.2315,-7.2404,-7.2393,-7.2412,-7.2512,-7.2592,-7.2604,-7.2606,-7.2569,-7.2612,-7.263,-7.2606,-7.276,-7.2714,-7.2732,-7.279,-7.2943,-7.2952,-7.296,-7.3017,-7.3035,-7.3049,0,0,0,0,0,0,-7.2362,-7.241,-7.2398,-7.2504,-7.2545,-7.2585,-7.2639,-7.2625,-7.2675,-7.2667,-7.2665,-7.2676,-7.2769,-7.2788,-7.2736,-7.2899,-7.2846,-7.2858,-7.2883,-7.29,-7.2913,-7.2906,-7.2685,0,0,0,0,0,-7.2385,-7.2449,-7.2486,-7.2575,-7.2597,-7.2615,-7.265,-7.2648,-7.2689,-7.2705,-7.273,-7.2769,-7.2826,-7.2864,-7.2918,-7.3026,-7.3035,-7.3074,-7.3088,-7.3098,-7.3109,-7.3168,-7.3186,-7.2992,-7.2992,-7.2992,0,0,-7.2433,-7.2467,-7.2506,-7.2586,-7.2617,-7.2681,-7.2629,-7.2699,-7.2746,-7.2715,-7.2803,-7.2822,-7.2865,-7.2965,-7.301,-7.2984,-7.3165,-7.3109,-7.3118,-7.3123,-7.3179,-7.3197,-7.3213,-7.2998,-7.2997,-7.2996,0,0,-7.2552,-7.2584,-7.2664,-7.2697,-7.2746,-7.2758,-7.2777,-7.282,-7.2833,-7.2921,-7.29,-7.2955,-7.3053,-7.3086,-7.3115,-7.3249,-7.3228,-7.3266,-7.3335,-7.3392,-7.3408,-7.3421,-7.3469,-7.3486,-7.3277,-7.3277,-7.3277,0,-7.2604,-7.2702,-7.2705,-7.2778,-7.2813,-7.2791,-7.2871,-7.2902,-7.2965,-7.299,-7.296,-7.3085,-7.3112,-7.322,-7.3253,-7.3277,-7.3298,-7.3261,-7.3406,-7.3419,-7.3432,-7.3478,-7.3496,-7.3281,-7.3281,-7.328,-7.328,0,-7.2764,-7.2832,-7.289,-7.2955,-7.2997,-7.3072,-7.3085,-7.3127,-7.3122,-7.3136,-7.3226,-7.3259,-7.332,-7.3345,-7.3339,-7.3452,-7.3434,-7.3406,-7.3352,-7.3455,-7.3498,-7.3515,-7.3287,-7.3286,-7.3285,-7.3283,0,0,-7.2914,-7.2982,-7.3003,-7.3033,-7.3087,-7.3138,-7.3212,-7.3275,-7.3311,-7.3355,-7.3417,-7.3502,-7.3476,-7.3509,-7.3507,-7.3558,-7.3662,-7.3522,-7.3523,-7.3547,-7.3788,-7.381,-7.383,-7.3649,-7.3653,-7.3655,-7.3785,0,-7.3038,-7.3171,-7.3177,-7.3297,-7.336,-7.3341,-7.3405,-7.3444,-7.346,-7.3514,-7.3529,-7.359,-7.3551,-7.3572,-7.3621,-7.3639,-7.371,-7.363,-7.3705,-7.3708,-7.3695,-7.3852,-7.3875,-7.3996,-7.3801,-7.3804,-7.3806,0,-7.32,-7.3254,-7.3381,-7.3427,-7.3454,-7.3512,-7.357,-7.3622,-7.3666,-7.3673,-7.3712,-7.3703,-7.3777,-7.3722,-7.3824,-7.3769,-7.38,-7.3814,-7.3819,-7.3825,-7.3763,-7.3864,-7.4034,-7.4052,-7.3832,-7.383,-7.3828,0,-7.3298,-7.3401,-7.3491,-7.3517,-7.3573,-7.3614,-7.3639,-7.3679,-7.3717,-7.3767,-7.3791,-7.3848,-7.3879,-7.3923,-7.3929,-7.3888,-7.4031,-7.3976,-7.4039,-7.4039,-7.407,-7.4068,-7.4248,-7.409,-7.409,-7.4089,-7.4089,0,-7.3436,-7.3515,-7.3536,-7.3591,-7.3679,-7.3684,-7.377,-7.3791,-7.3827,-7.3885,-7.3871,-7.3925,-7.393,-7.3986,-7.3991,-7.4074,-7.4088,-7.4096,-7.4096,-7.4097,-7.4096,-7.4117,-7.4109,-7.4094,-7.4093,-7.4092,-7.4091,0,-7.356,-7.3577,-7.3674,-7.372,-7.3733,-7.3796,-7.3834,-7.3886,-7.3901,-7.3975,-7.3992,-7.4014,-7.4079,-7.409,-7.4165,-7.4168,-7.4269,-7.426,-7.4255,-7.4254,-7.4316,-7.431,-7.4516,-7.4543,-7.4368,-7.4369,-7.4371,0,-7.3647,-7.3707,-7.3761,-7.38,-7.3828,-7.389,-7.393,-7.3937,-7.3977,-7.4033,-7.4078,-7.4142,-7.4193,-7.4297,-7.4319,-7.4376,-7.4369,-7.4437,-7.4377,-7.4377,-7.437,-7.4367,-7.4373,-7.4449,-7.445,-7.4452,-7.4453,0,-7.3799,-7.3806,-7.3864,-7.3926,-7.3973,-7.4022,-7.4067,-7.4099,-7.4112,-7.4158,-7.4226,-7.4266,-7.4345,-7.4408,-7.4465,-7.4488,-7.4473,-7.4472,-7.449,-7.4492,-7.4486,-7.449,-7.4287,-7.4467,-7.4466,-7.4465,-7.4464,-7.4464,-7.3907,-7.3961,-7.4008,-7.4073,-7.4109,-7.4152,-7.4204,-7.4227,-7.4284,-7.435,-7.435,-7.4424,-7.4466,-7.4542,-7.457,-7.4626,-7.4604,-7.4629,-7.4636,-7.4642,-7.4648,-7.4478,-7.4636,-7.4636,-7.4636,-7.4635,-7.4635,0,-7.4059,-7.4089,-7.415,-7.4216,-7.4267,-7.4251,-7.4301,-7.4344,-7.441,-7.4452,-7.4504,-7.4582,-7.4643,-7.4671,-7.4731,-7.4771,-7.4766,-7.4787,-7.4784,-7.4789,-7.4664,-7.4644,-7.479,-7.479,-7.479,-7.479,-7.479,-7.479,-7.4145,-7.4235,-7.4247,-7.4355,-7.4383,-7.4458,-7.4488,-7.4527,-7.4561,-7.4649,-7.4701,-7.472,-7.4756,-7.4819,-7.4874,-7.488,-7.4903,-7.4928,-7.4931,-7.4814,-7.4798,-7.4783,-7.4763,-7.4933,-7.4933,-7.5051,-7.5052,-7.5053]}]]